Charter Quote
Worldwide +44-20-3874-8091 Call
Select Language Lang
SAFETY RELIABILITY EXPERIENCE

Jacarepagua (SBJR) - Jet Charter Services

AIRPORT INFORMATION
ICAOSBJR
LOCATIONRio De Janeiro, Brazil
FACILITY TYPEAIRPORT
Runway Length (ft) Width (ft) Surface Type Elevation (ft)
02/20 2956 42 CONC 10.00000

At Paramount Business Jets you can hire chartered private jets to and from Jacarepagua with as little as 4 hours of notice. All flights booked via Paramount Business Jets are operated by certified direct air carriers that meet and exceed the FAA part 135 and 121 protocol or a foreign equivalent safety authority. Furthermore, Paramount Business Jets subscribes to ARGUS for their third party safety checks of operators, aircraft, and crews prior each and every flight to and from Jacarepagua and worldwide.

  • Quote a trip using Jacarepagua or call us 24/7 - 365 days a year at +44-20-3874-8091.
Questions? Call +44-20-3874-8091

METAR Weather Data at Jacarepagua, SBJR

STATIONSBJR
OBSERVEDThu Apr 25, 21:00 UTC
NOWThu Apr 25, 21:42 UTC
AGE42 min ago
WINDSE at 7 mph
VISIBILITY16 miles
CLOUDSpartly cloudy
TEMP82°F (28°C)
DEWPT72°F (22°C)
HUMIDITY70%
HEAT INDEX86°F (30°C)
BAROMETER1017 hPa (30.03 in Hg)
METARSBJR 252100Z 13006KT 9999 FEW020 28/22 Q1017

Call us on +44-20-3874-8091 (24 Hours) to Hire a Private Jet or Get a Quick Quote.

Find Airports Near any Location

Processing
...